INTELSAT 15 (IS-15)

Last updated on Sept. 27, 2020, 5:41 a.m. UTC

1 36106U 09067A   20270.78591859 -.00000209  00000-0  00000-0 0  9993
2 36106   0.0180 219.7808 0002373 316.8270 197.5190  1.00271933 20341
UTC
Height (km)
Latitude
Longitude
Inclination
Orbital Period
UTC large
Height (km)
Speed (km/s)
/
Latitude / Longitude
Inclination (degrees)
Orbital Period (minutes)
Azimuth
Elevation
Range (km)
Doppler Factor
iOS Compass Heading
iOS Angle

Next 30 passes for location: Hong Kong

Rise time Rise Azimuth (degrees) Set time Set Azimuth (degrees) Duration Max altitude (degrees)

No matching passes for this satellites